timestamp,surface_pressure_avg,surface_temp_avg,battery_voltage,lat,long
2020-07-24 00:09:01+00:00,317.6946,15.37,12.81,47.84626,-54.09684
2020-07-24 00:19:01+00:00,323.9363,15.3,12.73,47.84626,-54.09684
2020-07-24 00:29:01+00:00,329.9547,15.3,12.73,47.84626,-54.09684
2020-07-24 00:39:01+00:00,341.0146,15.2,12.73,47.84626,-54.09684
2020-07-24 00:49:01+00:00,348.0197,15.1,12.73,47.84626,-54.09684
2020-07-24 00:59:01+00:00,352.3864,15.07,12.73,47.84626,-54.09684
2020-07-24 01:09:01+00:00,355.2662,15.1,12.73,47.84626,-54.09684
2020-07-24 01:19:01+00:00,357.8979,15.0,12.73,47.84626,-54.09684
2020-07-24 01:29:01+00:00,360.4229,14.99,12.73,47.84626,-54.09684
2020-07-24 01:39:01+00:00,363.3812,14.9,12.73,47.84626,-54.09684
2020-07-24 01:49:01+00:00,365.2496,15.04,12.73,47.84626,-54.09684
2020-07-24 01:59:01+00:00,364.3196,15.29,12.73,47.84626,-54.09684
2020-07-24 02:09:01+00:00,363.278,15.3,12.73,47.84626,-54.09684
2020-07-24 02:19:01+00:00,364.1629,15.4,12.73,47.84626,-54.09684
2020-07-24 02:29:01+00:00,362.8846,15.5,12.73,47.84626,-54.09684
2020-07-24 02:39:01+00:00,364.978,15.5,12.73,47.84626,-54.09684
2020-07-24 02:49:01+00:00,366.07300000000004,15.5,12.73,47.84626,-54.09684
2020-07-24 02:59:01+00:00,361.8979,15.5,12.73,47.84626,-54.09684
2020-07-24 03:09:01+00:00,358.408,15.55,12.73,47.84626,-54.09684
2020-07-24 03:19:01+00:00,356.9479,15.59,12.73,47.84626,-54.09684
2020-07-24 03:29:01+00:00,352.3729,15.6,12.73,47.84626,-54.09684
2020-07-24 03:39:01+00:00,347.7679,15.67,12.73,47.84626,-54.09684
2020-07-24 03:49:01+00:00,344.6963,15.75,12.73,47.84626,-54.09684
2020-07-24 03:59:01+00:00,342.4464,15.81,12.73,47.84626,-54.09684
2020-07-24 04:09:01+00:00,335.8046,15.9,12.73,47.84626,-54.09684
2020-07-24 04:19:01+00:00,326.1479,16.0,12.73,47.84626,-54.09684
2020-07-24 04:29:01+00:00,319.7997,16.02,12.73,47.84626,-54.09684
2020-07-24 04:39:01+00:00,310.5714,16.05,12.73,47.84626,-54.09684
2020-07-24 04:49:01+00:00,299.7713,16.1,12.73,47.84626,-54.09684
2020-07-24 04:59:01+00:00,292.388,16.1,12.73,47.84626,-54.09684
2020-07-24 05:09:01+00:00,285.1831,16.14,12.73,47.84626,-54.09684
2020-07-24 05:19:01+00:00,275.5514,16.2,12.73,47.84626,-54.09684
2020-07-24 05:29:01+00:00,263.0281,16.23,12.73,47.84626,-54.09684
2020-07-24 05:39:01+00:00,252.7964,16.24,12.73,47.84626,-54.09684
2020-07-24 05:49:01+00:00,242.8164,16.2,12.73,47.84626,-54.09684
2020-07-24 05:59:01+00:00,233.2831,16.14,12.73,47.84626,-54.09684
2020-07-24 06:09:01+00:00,223.6647,16.1,12.73,47.84626,-54.09684
2020-07-24 06:19:01+00:00,217.6831,16.1,12.65,47.84626,-54.09684
2020-07-24 06:29:01+00:00,209.9865,16.1,12.65,47.84626,-54.09684
2020-07-24 06:39:01+00:00,199.7581,16.1,12.65,47.84626,-54.09684
2020-07-24 06:49:01+00:00,192.3148,16.1,12.65,47.84626,-54.09684
2020-07-24 06:59:01+00:00,187.7481,16.1,12.65,47.84626,-54.09684
2020-07-24 07:09:01+00:00,179.6647,16.1,12.65,47.84626,-54.09684
2020-07-24 07:19:01+00:00,173.5698,16.1,12.65,47.84626,-54.09684
2020-07-24 07:29:01+00:00,172.7031,16.08,12.65,47.84626,-54.09684
2020-07-24 07:39:01+00:00,170.7581,16.09,12.65,47.84626,-54.09684
2020-07-24 07:49:01+00:00,169.2832,16.1,12.65,47.84626,-54.09684
2020-07-24 07:59:01+00:00,171.0515,16.0,12.65,47.84626,-54.09684
2020-07-24 08:09:01+00:00,174.1598,16.0,12.65,47.84626,-54.09684
2020-07-24 08:19:01+00:00,173.9215,15.91,12.65,47.84626,-54.09684
2020-07-24 08:29:01+00:00,173.4098,15.9,12.65,47.84626,-54.09684
2020-07-24 08:39:01+00:00,176.6131,15.9,12.65,47.84626,-54.09684
2020-07-24 08:49:01+00:00,180.3431,15.9,12.65,47.84626,-54.09684
2020-07-24 08:59:01+00:00,181.4648,15.9,12.65,47.84626,-54.09684
2020-07-24 09:09:01+00:00,185.0315,15.9,12.65,47.84626,-54.09684
2020-07-24 09:19:01+00:00,193.3515,15.89,12.65,47.84626,-54.09684
2020-07-24 09:29:01+00:00,195.7398,15.85,12.65,47.84626,-54.09684
2020-07-24 09:39:01+00:00,195.0048,15.8,12.65,47.84626,-54.09684
2020-07-24 09:49:01+00:00,202.0248,15.8,12.65,47.84626,-54.09684
2020-07-24 09:59:01+00:00,210.0664,15.8,12.65,47.84626,-54.09684
2020-07-24 10:09:01+00:00,212.7531,15.79,12.65,47.84626,-54.09684
2020-07-24 10:19:01+00:00,215.4881,15.8,12.73,47.84626,-54.09684
2020-07-24 10:29:01+00:00,217.6515,15.8,12.73,47.84626,-54.09684
2020-07-24 10:39:01+00:00,220.5548,15.8,12.73,47.84626,-54.09684
2020-07-24 10:49:01+00:00,229.5864,15.79,12.73,47.84626,-54.09684
2020-07-24 10:59:01+00:00,236.868,15.77,12.73,47.84626,-54.09684
2020-07-24 11:09:01+00:00,241.8031,15.76,12.73,47.84626,-54.09684
2020-07-24 11:19:01+00:00,248.7164,15.79,12.81,47.84626,-54.09684
2020-07-24 11:29:01+00:00,256.4114,15.8,12.81,47.84626,-54.09684
2020-07-24 11:39:01+00:00,260.8097,15.76,12.81,47.84626,-54.09684
2020-07-24 11:49:01+00:00,269.3297,15.8,12.81,47.84626,-54.09684
2020-07-24 11:59:01+00:00,280.3964,15.8,12.81,47.84626,-54.09684
2020-07-24 12:09:01+00:00,284.8196,15.7,12.81,47.84626,-54.09684
2020-07-24 12:19:01+00:00,286.953,15.7,12.73,47.84626,-54.09684
2020-07-24 12:29:01+00:00,297.308,15.6,12.73,47.84626,-54.09684
2020-07-24 12:39:01+00:00,308.4896,15.6,12.73,47.84626,-54.09684
2020-07-24 12:49:01+00:00,313.2697,15.7,12.73,47.84626,-54.09684
2020-07-24 12:59:01+00:00,318.4929,15.7,12.73,47.84626,-54.09684
2020-07-24 13:09:01+00:00,326.5814,15.2,12.73,47.84626,-54.09684
2020-07-24 13:19:01+00:00,334.9464,15.27,12.73,47.84626,-54.09684
2020-07-24 13:29:01+00:00,340.8813,15.3,12.73,47.84626,-54.09684
2020-07-24 13:39:01+00:00,344.4963,15.2,12.73,47.84626,-54.09684
2020-07-24 13:49:01+00:00,347.1913,15.2,12.73,47.84626,-54.09684
2020-07-24 13:59:01+00:00,345.3179,15.2,12.73,47.84626,-54.09684
2020-07-24 14:09:01+00:00,343.7596,15.2,12.73,47.84626,-54.09684
2020-07-24 14:19:01+00:00,346.1362,15.27,12.97,47.84626,-54.09684
2020-07-24 14:29:01+00:00,346.7046,15.4,12.97,47.84626,-54.09684
2020-07-24 14:39:01+00:00,344.61300000000006,15.4,12.97,47.84626,-54.09684
2020-07-24 14:49:01+00:00,345.1996,15.4,12.97,47.84626,-54.09684
2020-07-24 14:59:01+00:00,346.0079,15.5,12.97,47.84626,-54.09684
2020-07-24 15:09:01+00:00,345.4747,15.58,12.97,47.84626,-54.09684
2020-07-24 15:19:01+00:00,342.1280000000001,15.7,12.89,47.84626,-54.09684
2020-07-24 15:29:01+00:00,337.2513,15.74,12.89,47.84626,-54.09684
2020-07-24 15:39:01+00:00,333.2964,15.87,12.89,47.84626,-54.09684
2020-07-24 15:49:01+00:00,331.3747,16.32,12.89,47.84626,-54.09684
2020-07-24 15:59:01+00:00,327.4431,16.39,12.89,47.84626,-54.09684
2020-07-24 16:09:01+00:00,319.2546,16.1,12.89,47.84626,-54.09684
2020-07-24 16:19:01+00:00,309.4263,16.1,12.89,47.84626,-54.09684
2020-07-24 16:29:01+00:00,305.7063,15.89,12.89,47.84626,-54.09684
2020-07-24 16:39:01+00:00,305.5964,16.32,12.89,47.84626,-54.09684
2020-07-24 16:49:01+00:00,300.1681,16.49,12.89,47.84626,-54.09684
2020-07-24 16:59:01+00:00,287.1813,16.5,12.89,47.84626,-54.09684
2020-07-24 17:09:01+00:00,278.6998,15.9,12.89,47.84626,-54.09684
2020-07-24 17:19:01+00:00,274.173,16.15,13.05,47.84626,-54.09684
2020-07-24 17:29:01+00:00,270.3564,16.38,13.05,47.84626,-54.09684
2020-07-24 17:39:01+00:00,258.1815,16.5,13.05,47.84626,-54.09684
2020-07-24 17:49:01+00:00,246.4263,16.6,13.05,47.84626,-54.09684
2020-07-24 17:59:01+00:00,240.3264,16.69,13.05,47.84626,-54.09684
2020-07-24 18:09:01+00:00,236.2664,16.66,13.05,47.84626,-54.09684
2020-07-24 18:19:01+00:00,225.2298,16.69,13.05,47.84626,-54.09684
2020-07-24 18:29:01+00:00,212.6448,16.74,13.05,47.84626,-54.09684
2020-07-24 18:39:01+00:00,208.1448,16.73,13.05,47.84626,-54.09684
2020-07-24 18:49:01+00:00,198.6331,16.7,13.05,47.84626,-54.09684
2020-07-24 18:59:01+00:00,192.5048,16.72,13.05,47.84626,-54.09684
2020-07-24 19:09:01+00:00,192.3181,16.7,13.05,47.84626,-54.09684
2020-07-24 19:19:01+00:00,183.0331,16.72,12.97,47.84626,-54.09684
2020-07-24 19:29:01+00:00,177.6298,16.79,12.97,47.84626,-54.09684
2020-07-24 19:39:01+00:00,178.5548,16.8,12.97,47.84626,-54.09684
2020-07-24 19:49:01+00:00,176.3565,16.8,12.97,47.84626,-54.09684
2020-07-24 19:59:01+00:00,173.6098,16.7,12.97,47.84626,-54.09684
2020-07-24 20:09:01+00:00,176.7214,16.7,12.97,47.84626,-54.09684
2020-07-24 20:19:01+00:00,178.9382,16.67,12.89,47.84626,-54.09684
2020-07-24 20:29:01+00:00,177.1915,16.6,12.89,47.84626,-54.09684
2020-07-24 20:39:01+00:00,178.7315,16.33,12.89,47.84626,-54.09684
2020-07-24 20:49:01+00:00,183.4848,16.0,12.89,47.84626,-54.09684
2020-07-24 20:59:01+00:00,186.4648,15.8,12.89,47.84626,-54.09684
2020-07-24 21:09:01+00:00,186.9114,15.7,12.89,47.84626,-54.09684
2020-07-24 21:19:01+00:00,191.2548,15.7,12.97,47.84626,-54.09684
2020-07-24 21:29:01+00:00,196.2398,15.5,12.97,47.84626,-54.09684
2020-07-24 21:39:01+00:00,197.8247,15.6,12.97,47.84626,-54.09684
2020-07-24 21:49:01+00:00,200.1564,15.6,12.97,47.84626,-54.09684
2020-07-24 21:59:01+00:00,207.6198,15.48,12.97,47.84626,-54.09684
2020-07-24 22:09:01+00:00,218.4281,15.21,12.97,47.84626,-54.09684
2020-07-24 22:19:01+00:00,221.0913,15.39,12.97,47.84626,-54.09684
2020-07-24 22:29:01+00:00,220.2164,15.39,12.97,47.84626,-54.09684
2020-07-24 22:39:01+00:00,226.0681,15.2,12.97,47.84626,-54.09684
2020-07-24 22:49:01+00:00,230.1581,15.18,12.97,47.84626,-54.09684
2020-07-24 22:59:01+00:00,231.6097,15.19,12.97,47.84626,-54.09684
2020-07-24 23:09:01+00:00,236.5314,15.1,12.97,47.84626,-54.09684
2020-07-24 23:19:01+00:00,241.6964,14.96,12.73,47.84626,-54.09684
2020-07-24 23:29:01+00:00,246.5614,15.0,12.73,47.84626,-54.09684
2020-07-24 23:39:01+00:00,252.3881,14.9,12.73,47.84626,-54.09684
2020-07-24 23:49:01+00:00,259.7931,14.99,12.73,47.84626,-54.09684
2020-07-24 23:59:01+00:00,266.2548,15.0,12.73,47.84626,-54.09684
